Wind_Speed
3 4 4 4 5 5 5 4 4 4 4 4 4 4 3 3 3 3 2 2 2 3 4 4 5 6 7 8 8 8 9 9 9 9 9 9 9 9 8 9 8 8 8
3 3 4 4 4 4 4 4 4 4 4 4 4 3 3 3 3 3 3 3 3 3 4 5 5 6 7 8 9 9 9 9 9 10 9 9 9 9 9 9 8 9 8
3 2 3 3 3 4 4 4 4 4 4 4 4 4 3 3 3 3 3 3 3 4 5 5 6 6 6 7 8 9 10 10 10 10 10 10 10 10 10 9 9 9 9
2 2 2 3 3 4 4 4 4 4 4 4 4 4 3 3 3 3 3 3 4 4 5 6 6 6 7 7 8 9 10 10 10 10 10 9 9 10 10 9 10 10 9
2 2 2 3 3 4 4 4 4 4 4 4 4 3 4 4 4 4 3 4 4 5 5 6 6 7 7 7 8 9 10 11 11 11 10 9 9 9 9 10 11 10 9
1 2 2 2 3 3 4 4 5 5 4 4 4 4 4 4 4 4 4 4 4 5 5 6 6 8 9 8 8 9 11 11 11 11 10 9 9 9 9 9 10 11 10
1 2 2 2 3 3 4 4 4 4 5 5 5 5 5 5 5 5 4 4 4 5 5 6 7 7 9 9 9 10 11 11 11 11 10 9 9 9 9 9 10 10 10
0 1 2 3 3 3 4 4 4 4 5 5 5 5 6 5 6 5 5 4 5 5 5 6 7 7 8 9 9 10 10 11 11 11 10 10 10 10 9 10 10 10 10
1 1 2 3 3 3 3 4 4 4 5 5 6 6 6 6 6 5 5 5 5 5 5 6 6 7 8 9 9 10 10 11 11 11 11 10 10 10 9 10 10 9 10
2 1 1 2 3 3 3 3 4 5 5 5 6 7 7 7 6 6 6 5 5 5 5 5 6 7 8 9 9 9 10 11 11 11 11 10 10 10 9 9 10 10 9
1 1 1 2 2 3 3 3 4 5 6 6 7 8 8 7 7 7 7 6 5 4 4 4 5 6 7 8 8 9 9 10 11 11 11 11 10 10 9 9 9 10 9
1 1 0 1 2 3 2 3 4 5 6 7 8 8 8 8 8 8 7 6 5 4 3 3 3 4 6 7 8 8 8 9 10 11 10 10 10 11 10 9 9 9 9
2 2 1 1 2 2 2 3 4 5 6 7 8 8 8 8 8 8 8 6 5 4 2 1 2 3 5 7 8 8 8 9 9 10 10 9 9 10 10 9 9 9 10
3 2 2 1 1 2 2 3 4 5 6 7 8 8 8 8 8 9 8 7 5 4 3 1 1 3 5 6 7 7 7 8 9 9 10 9 8 8 9 9 9 9 10
4 3 2 1 1 2 2 2 4 5 6 7 7 8 8 8 9 9 8 7 6 5 4 2 1 2 4 5 5 6 7 7 8 8 9 9 8 8 9 9 9 9 9
4 4 3 2 1 1 2 2 3 5 6 6 7 8 8 8 9 8 8 8 7 6 5 4 3 2 4 4 5 5 6 7 7 8 9 9 9 9 8 8 8 8 8
4 4 3 2 1 1 1 2 3 5 5 6 7 8 8 8 8 9 8 8 7 7 6 5 4 2 3 3 4 5 6 6 8 8 9 9 9 9 9 8 7 8 8
4 4 4 3 2 1 1 2 3 4 5 6 7 7 8 8 8 8 8 8 8 7 6 5 4 3 3 3 3 4 5 6 7 7 8 8 9 9 8 8 7 7 8
4 3 4 4 3 1 1 2 2 3 4 5 6 7 7 8 8 8 8 8 8 7 7 6 5 4 4 3 3 3 4 5 6 7 7 8 8 8 8 7 7 7 7
5 4 3 4 3 1 0 1 1 3 4 5 6 6 7 7 8 8 8 8 7 7 7 6 5 5 4 3 3 3 3 4 5 6 7 7 8 7 7 7 7 7 6
5 5 4 5 3 2 1 0 1 2 3 4 5 6 6 7 7 7 7 8 8 7 7 6 6 5 5 4 3 3 3 3 4 5 6 6 7 7 6 6 6 6 5
6 6 6 5 5 4 2 1 0 2 2 3 4 5 5 6 6 6 7 7 7 7 7 6 6 5 4 4 3 3 3 3 3 4 4 5 6 6 5 5 6 6 5
7 7 7 6 6 5 3 2 1 1 2 3 4 5 5 5 6 6 7 7 7 7 7 7 6 5 4 4 3 2 3 3 4 4 4 5 5 5 5 5 5 5 5
7 7 7 7 7 6 4 3 2 1 1 2 3 4 4 5 5 6 6 7 7 6 6 6 6 5 5 4 3 3 3 4 4 4 4 4 4 4 4 5 5 5 5
8 8 8 8 8 7 5 4 3 2 1 1 3 3 3 4 5 5 6 6 6 6 6 6 5 5 5 5 4 3 3 3 3 3 3 3 3 3 4 4 5 5 6
8 8 8 8 8 7 6 6 4 3 2 1 1 2 2 3 4 5 5 6 6 7 7 6 6 6 6 5 4 3 3 3 3 2 2 3 3 4 4 5 5 5 6
Wind_Direction
61 54 51 46 43 43 42 34 29 21 11 3 354 346 336 331 325 314 300 279 255 245 236 230 225 223 221 220 216 213 211 208 205 204 203 199 198 196 194 192 190 186 182
47 52 52 46 39 39 34 25 18 11 7 354 348 347 339 333 324 313 300 277 256 250 245 238 231 226 221 216 216 215 213 211 207 206 205 204 204 204 201 197 193 190 185
39 56 54 39 32 25 16 9 9 3 355 349 343 339 340 336 325 310 299 281 259 253 248 242 236 230 224 217 215 215 214 214 212 208 208 207 207 209 207 205 201 196 190
37 56 43 29 23 17 15 13 10 5 356 351 346 339 339 331 320 310 297 282 264 259 250 243 237 230 224 218 217 215 213 212 212 210 211 210 208 209 210 209 204 198 196
46 45 24 22 19 16 15 14 13 10 4 2 357 348 341 335 327 317 302 288 275 266 255 245 237 230 226 220 216 215 214 213 211 210 211 211 210 210 210 208 201 200 199
45 37 31 19 19 12 8 6 5 8 8 5 360 350 341 336 328 315 303 291 279 269 258 247 238 231 225 221 216 214 214 212 211 211 211 208 205 205 203 200 200 202 200
49 40 34 19 17 14 9 8 10 15 12 10 6 356 348 341 332 321 311 297 284 271 257 246 238 232 225 222 217 213 211 210 210 210 207 205 202 203 201 201 200 201 201
351 13 20 15 8 6 6 11 12 13 13 10 5 359 353 349 340 333 323 308 290 275 260 249 241 233 225 222 219 215 212 209 209 208 207 204 203 203 203 202 201 204 206
274 328 2 16 9 4 4 12 17 16 14 10 4 359 356 353 346 340 331 315 297 281 265 253 244 234 227 222 217 214 212 210 211 210 204 202 203 203 203 202 202 204 204
247 274 3 11 5 360 1 16 21 19 14 12 8 4 2 359 355 350 338 327 313 295 275 255 244 235 228 223 219 214 212 207 206 202 200 200 202 203 202 200 201 202 202
237 230 339 16 7 6 12 27 20 16 13 14 13 9 5 1 358 353 343 335 326 310 286 261 242 233 224 219 214 209 206 206 200 200 202 203 203 203 201 198 200 202 204
212 195 27 33 11 11 12 19 13 12 11 10 11 7 3 1 360 357 351 342 334 327 307 274 236 222 212 206 203 201 201 198 198 202 204 206 206 204 205 204 205 205 205
197 196 167 38 10 12 10 10 12 13 11 10 9 5 5 6 1 358 356 353 351 357 353 303 216 197 195 196 197 195 194 194 196 200 203 205 206 203 206 207 208 209 210
198 202 193 180 24 18 11 12 14 12 13 13 10 10 10 10 6 6 7 9 12 17 27 44 171 187 186 189 189 191 193 193 195 198 201 204 206 206 206 209 212 214 216
203 199 196 192 2 13 14 10 13 15 16 19 16 15 14 13 13 14 18 22 25 29 38 53 99 167 174 179 184 188 193 194 198 200 204 207 208 208 209 212 215 217 218
206 201 204 205 288 0 20 11 6 12 18 20 18 16 16 16 18 21 24 28 33 41 52 69 90 134 170 181 190 194 197 199 201 202 204 209 209 208 211 214 216 218 219
217 201 197 208 251 342 13 17 11 14 17 19 20 19 21 23 25 27 28 34 40 49 56 68 88 117 150 172 184 192 199 202 201 201 203 206 207 209 213 217 218 223 223
218 208 208 214 224 272 358 6 12 19 22 23 24 25 28 31 32 31 33 38 46 52 55 61 72 83 108 140 167 187 193 195 199 200 201 203 206 210 211 215 220 224 224
220 217 214 210 220 234 342 6 16 23 23 25 27 29 35 38 36 36 37 40 47 53 57 61 72 85 99 116 134 159 180 190 196 197 196 201 206 210 212 216 220 226 226
230 224 217 206 207 220 280 359 19 23 24 26 28 30 38 40 40 40 41 43 45 50 54 60 69 81 87 106 123 137 163 183 192 193 192 197 200 206 213 215 219 223 226
224 221 222 208 208 213 222 293 12 20 27 30 31 32 37 44 44 43 42 46 47 50 54 59 66 70 73 89 109 128 158 173 183 190 191 193 196 204 211 211 213 216 224
222 221 220 213 214 211 204 209 12 17 24 24 29 30 39 46 46 45 44 47 49 52 54 56 62 66 68 76 94 109 133 162 174 183 190 194 194 199 203 209 215 218 227
222 219 215 213 215 207 202 210 222 11 20 20 23 26 37 42 43 48 48 49 52 55 57 56 58 59 62 67 78 104 139 149 159 172 177 182 189 200 206 214 222 226 233
215 214 214 214 214 209 207 211 210 261 10 23 21 28 43 43 43 47 48 50 53 55 56 53 56 56 57 61 70 96 125 140 149 166 174 179 188 200 209 216 220 228 237
211 212 215 213 212 214 215 213 219 236 250 36 36 40 51 46 46 49 49 48 49 53 53 51 52 51 53 60 64 86 107 123 138 158 174 185 201 217 226 229 233 238 238
211 213 212 211 213 215 217 220 223 225 217 167 49 47 57 56 52 52 50 46 47 50 51 50 50 47 51 56 55 74 103 124 138 161 190 209 228 236 240 242 241 239 238
Height
5895 5894 5893 5892 5892 5891 5891 5890 5889 5888 5887 5886 5886 5885 5884 5883 5883 5882 5881 5881 5881 5881 5881 5881 5881 5882 5882 5883 5884 5885 5886 5887 5887 5888 5889 5890 5891 5891 5892 5893 5894 5895 5896
5895 5894 5893 5893 5892 5891 5891 5890 5889 5888 5887 5886 5886 5885 5884 5883 5882 5881 5881 5880 5880 5880 5880 5880 5880 5881 5881 5882 5883 5884 5885 5886 5886 5887 5888 5889 5890 5891 5892 5893 5894 5895 5895
5894 5894 5893 5893 5892 5892 5891 5890 5889 5888 5887 5886 5885 5884 5883 5882 5881 5881 5880 5880 5879 5879 5879 5879 5879 5879 5880 5881 5882 5883 5883 5884 5885 5886 5887 5889 5890 5891 5891 5893 5893 5894 5895
5894 5894 5893 5893 5892 5892 5891 5890 5889 5888 5887 5886 5884 5883 5883 5882 5881 5880 5879 5879 5878 5878 5878 5878 5878 5878 5879 5880 5880 5881 5882 5883 5884 5885 5887 5888 5889 5890 5891 5892 5893 5894 5895
5894 5893 5893 5893 5892 5891 5891 5890 5889 5887 5886 5885 5884 5883 5882 5881 5880 5879 5878 5877 5877 5877 5877 5876 5877 5877 5878 5878 5879 5880 5881 5882 5883 5884 5886 5887 5888 5889 5890 5891 5892 5893 5894
5894 5893 5893 5892 5892 5891 5890 5890 5888 5887 5886 5885 5884 5883 5881 5880 5879 5878 5877 5876 5876 5875 5875 5875 5875 5876 5876 5877 5878 5879 5880 5881 5882 5883 5885 5886 5887 5888 5889 5890 5891 5892 5893
5894 5893 5893 5892 5892 5891 5890 5889 5888 5887 5886 5885 5884 5882 5881 5879 5878 5877 5876 5875 5874 5874 5874 5874 5874 5874 5875 5875 5876 5877 5878 5879 5881 5882 5884 5885 5886 5887 5888 5889 5890 5892 5893
5893 5893 5893 5892 5892 5891 5890 5889 5888 5887 5886 5885 5883 5882 5880 5879 5877 5876 5875 5874 5873 5873 5872 5872 5872 5872 5873 5874 5875 5876 5877 5878 5880 5881 5883 5884 5885 5887 5888 5889 5890 5891 5892
5893 5893 5892 5892 5892 5891 5890 5889 5888 5887 5886 5884 5883 5881 5880 5878 5877 5875 5874 5873 5872 5871 5871 5871 5871 5871 5871 5872 5873 5874 5876 5877 5878 5880 5882 5883 5884 5886 5887 5888 5889 5890 5891
5892 5893 5892 5892 5891 5891 5890 5889 5888 5887 5886 5884 5883 5881 5879 5878 5876 5875 5873 5872 5870 5869 5869 5869 5869 5869 5870 5871 5872 5873 5874 5876 5877 5879 5880 5882 5883 5884 5886 5887 5888 5890 5891
5892 5892 5892 5891 5891 5890 5890 5889 5888 5887 5886 5884 5883 5881 5879 5877 5876 5874 5872 5870 5869 5868 5867 5867 5867 5867 5868 5869 5870 5872 5873 5875 5876 5878 5879 5881 5882 5884 5885 5886 5887 5889 5890
5892 5892 5892 5891 5891 5890 5889 5889 5888 5887 5886 5884 5883 5881 5879 5877 5875 5873 5871 5869 5868 5867 5866 5866 5866 5866 5867 5868 5869 5871 5872 5873 5875 5877 5878 5880 5881 5882 5884 5885 5887 5888 5889
5892 5892 5891 5891 5891 5890 5890 5889 5888 5887 5886 5884 5883 5881 5879 5877 5875 5873 5871 5869 5867 5866 5865 5865 5865 5865 5866 5867 5868 5870 5871 5873 5874 5876 5877 5879 5880 5881 5883 5884 5886 5887 5888
5891 5892 5891 5891 5891 5890 5890 5889 5888 5887 5886 5884 5882 5880 5879 5877 5874 5872 5870 5868 5867 5865 5865 5864 5864 5865 5865 5866 5868 5869 5871 5872 5873 5875 5876 5878 5879 5881 5882 5883 5885 5886 5887
5890 5891 5891 5891 5891 5890 5890 5889 5888 5887 5886 5884 5882 5880 5878 5877 5874 5872 5870 5868 5867 5865 5865 5864 5864 5864 5865 5866 5867 5869 5870 5871 5873 5874 5876 5877 5879 5880 5881 5882 5884 5885 5886
5890 5890 5891 5891 5891 5890 5890 5889 5888 5887 5885 5884 5882 5880 5878 5876 5874 5872 5870 5869 5867 5866 5865 5864 5864 5864 5865 5866 5867 5868 5869 5871 5872 5874 5875 5876 5878 5879 5880 5881 5882 5883 5885
5888 5889 5890 5890 5890 5890 5889 5889 5888 5886 5885 5883 5882 5880 5878 5876 5875 5873 5871 5869 5867 5866 5865 5865 5865 5865 5865 5866 5867 5868 5869 5870 5871 5873 5874 5876 5877 5879 5880 5881 5881 5883 5884
5887 5888 5889 5889 5889 5889 5889 5888 5887 5886 5885 5883 5882 5880 5878 5877 5875 5873 5872 5870 5868 5867 5866 5866 5865 5865 5865 5866 5866 5867 5868 5869 5871 5872 5873 5875 5876 5878 5879 5880 5881 5882 5882
5886 5887 5888 5888 5889 5889 5888 5888 5887 5886 5885 5883 5882 5880 5878 5877 5876 5874 5872 5871 5870 5868 5868 5867 5866 5866 5866 5866 5866 5867 5868 5869 5870 5871 5873 5874 5876 5877 5878 5879 5880 5880 5881
5885 5886 5886 5887 5888 5888 5888 5887 5887 5886 5884 5883 5882 5880 5879 5878 5876 5875 5873 5872 5871 5870 5869 5868 5867 5867 5867 5867 5867 5867 5868 5869 5870 5871 5872 5874 5875 5876 5877 5878 5879 5879 5880
5884 5884 5885 5886 5887 5887 5887 5887 5886 5885 5884 5883 5882 5881 5879 5878 5877 5876 5875 5873 5872 5871 5870 5869 5869 5868 5868 5868 5868 5868 5868 5869 5870 5871 5872 5873 5874 5875 5876 5877 5878 5878 5879
5882 5883 5884 5885 5885 5886 5886 5886 5886 5885 5884 5883 5882 5881 5880 5879 5878 5877 5876 5874 5874 5873 5872 5871 5870 5869 5869 5869 5868 5868 5868 5869 5869 5870 5871 5872 5873 5874 5875 5876 5876 5877 5877
5881 5882 5883 5884 5884 5885 5885 5885 5885 5885 5884 5883 5882 5882 5881 5880 5879 5878 5877 5876 5875 5874 5873 5872 5871 5870 5870 5869 5868 5868 5868 5868 5869 5870 5871 5872 5873 5873 5874 5875 5875 5876 5876
5879 5880 5881 5882 5883 5884 5884 5884 5885 5884 5884 5883 5883 5882 5881 5880 5879 5879 5878 5877 5876 5875 5874 5873 5872 5871 5870 5869 5868 5868 5868 5868 5869 5870 5871 5871 5872 5873 5873 5874 5874 5874 5875
5877 5879 5880 5881 5882 5883 5883 5884 5884 5884 5884 5883 5883 5882 5882 5881 5880 5879 5879 5878 5877 5876 5875 5874 5873 5872 5871 5870 5869 5868 5868 5868 5869 5870 5871 5872 5872 5872 5872 5872 5873 5873 5873
5876 5877 5878 5879 5880 5881 5882 5882 5883 5883 5884 5883 5883 5882 5882 5881 5881 5880 5879 5879 5878 5877 5876 5875 5874 5873 5872 5871 5870 5869 5869 5869 5869 5870 5871 5871 5871 5871 5871 5871 5871 5871 5872